This is the latest recevied weather packets stored in our database for station/object N9OJR. If no packets are shown the sender has not sent any weather packets the latest 10 day(s).
| Time | Temp. | Humidity | Pressure | Rain* | Wind** | Luminosity | Snow |
|---|---|---|---|---|---|---|---|
| 1778101004 | 12.22° C | 62% | 1008 hPa | 0 mm | - | 177 W/m² | - |
| 1778100699 | 12.22° C | 63% | 1008.1 hPa | 0 mm | - | 168 W/m² | - |
| 1778100397 | 12.78° C | 63% | 1008.2 hPa | 0 mm | - | 147 W/m² | - |
| 1778100093 | 12.78° C | 60% | 1008.4 hPa | 0 mm | - | 168 W/m² | - |
| 1778099792 | 12.78° C | 62% | 1008.3 hPa | 0 mm | - | 189 W/m² | - |
| 1778099488 | 12.78° C | 61% | 1008.1 hPa | 0 mm | - | 188 W/m² | - |
| 1778099186 | 12.78° C | 62% | 1008.2 hPa | 0 mm | - | 289 W/m² | - |
| 1778098882 | 12.22° C | 61% | 1008.3 hPa | 0 mm | - | 211 W/m² | - |
| 1778098579 | 12.22° C | 60% | 1008.2 hPa | 0 mm | - | 150 W/m² | - |
| 1778098276 | 12.22° C | 60% | 1008.4 hPa | 0 mm | - | 192 W/m² | - |
| 1778097972 | 12.22° C | 61% | 1008.2 hPa | 0 mm | - | 221 W/m² | - |
| 1778097669 | 12.22° C | 62% | 1008.4 hPa | 0 mm | - | 158 W/m² | - |
| 1778097366 | 12.22° C | 62% | 1008.5 hPa | 0 mm | - | 134 W/m² | - |
| 1778097062 | 12.78° C | 59% | 1008.4 hPa | 0 mm | - | 107 W/m² | - |
| 1778096760 | 13.33° C | 60% | 1008.5 hPa | 0 mm | - | 178 W/m² | - |
| 1778096456 | 13.33° C | 58% | 1008.2 hPa | 0 mm | - | 240 W/m² | - |
| 1778096154 | 13.33° C | 57% | 1008.1 hPa | 0 mm | - | 234 W/m² | - |
| 1778095851 | 12.78° C | 59% | 1008 hPa | 0 mm | - | 393 W/m² | - |
| 1778095548 | 13.33° C | 58% | 1008.2 hPa | 0 mm | - | 218 W/m² | - |
| 1778095244 | 12.78° C | 58% | 1008.1 hPa | 0 mm | - | 277 W/m² | - |
| 1778094940 | 12.78° C | 60% | 1008.3 hPa | 0 mm | - | 219 W/m² | - |
| 1778094636 | 12.78° C | 59% | 1008.4 hPa | 0 mm | - | 186 W/m² | - |
| 1778094334 | 12.78° C | 57% | 1008.5 hPa | 0 mm | - | 160 W/m² | - |
| 1778094031 | 13.89° C | 56% | 1008.3 hPa | 0 mm | - | 246 W/m² | - |
| 1778093728 | 13.89° C | 56% | 1008.5 hPa | 0 mm | - | 274 W/m² | - |
* Rain latest hour (hover to see other rain measurements)
** Current wind speed in m/s (hover to see current wind gust speed)